DW8078 Weather Reports


Display with metric or nautical units.
time (UTC)temp
F
wind
direction
speed
MPH
gust
MPH
rain 1hr
in
rain 24hr
in
rain mn
in
humidity
%
barometer
mb
20210125123125 34 333 2.0 5.0 0.02 0.09 0.04 93 1000.5
20210125121542 34 340 3.0 6.0 0.02 0.09 0.03 93 1000.4
20210125120049 34 14 2.0 4.0 0.02 0.08 0.02 93 1000.5
20210125114532 33 326 2.0 4.0 0.02 0.08 0.02 93 1000.5
20210125113023 33 317 6.0 9.0 0.02 0.08 0.02 93 1000.4
20210125111543 34 323 2.0 5.0 0.02 0.07 0.02 93 1000.3
20210125110020 33 317 3.0 8.0 0.01 0.06 0.01 93 1000.2
20210125104511 34 312 0.0 0.0 0.01 0.06 0.01 93 1000.0
20210125103122 33 307 0.0 0.0 0.01 0.06 0.01 93 999.9
20210125101701 33 283 0.0 0.0 0.00 0.06 0.00 93 1000.0
20210125100150 0 0.0 0.0 0.00 0.06 0.00 1000.1
20210125094620 0 0.0 0.0 0.00 0.06 0.00 1000.0
20210125093152 0 0.0 0.0 0.00 0.06 0.00 1000.0
20210125091617 0 0.0 0.0 0.00 0.06 0.00 999.9
20210125090139 0 0.0 0.0 0.00 0.06 0.00 999.7
20210125084549 0 0.0 0.0 0.00 0.06 0.00 999.5
20210125081546 0 0.0 0.0 0.00 0.06 0.00 999.2
20210125080039 0 0.0 0.0 0.00 0.06 0.00 999.1
20210125074523 0 0.0 0.0 0.00 0.06 0.00 999.1
20210125073039 0 0.0 0.0 0.00 0.06 0.00 999.1
20210125071528 0 0.0 0.0 0.00 0.06 0.00 999.0
20210125070156 0 0.0 0.0 0.00 0.06 0.00 998.8
20210125064727 0 0.0 0.0 0.00 0.06 0.00 998.6
20210125063139 0 0.0 0.0 0.00 0.06 0.00 998.4
20210125061641 0 0.0 0.0 0.00 0.06 0.00 998.2
20210125060121 0 0.0 0.0 0.00 0.06 0.00 998.0
20210125054656 0 0.0 0.0 0.00 0.06 0.00 997.7
20210125053105 0 0.0 0.0 0.00 0.06 0.00 997.6
20210125051610 0 0.0 0.0 0.00 0.06 0.00 997.3
20210125050111 0 0.0 0.0 0.00 0.06 0.00 997.1
20210125044551 0 0.0 0.0 0.00 0.06 0.00 996.8
20210125043035 0 0.0 0.0 0.00 0.06 0.00 996.6
20210125041520 0 0.0 0.0 0.00 0.06 0.00 996.5
20210125040032 0 0.0 0.0 0.00 0.06 0.00 996.3
20210125034656 0 0.0 0.0 0.00 0.06 0.00 996.2
20210125033208 0 0.0 0.0 0.00 0.06 0.00 996.2
20210125031621 0 0.0 0.0 0.00 0.06 0.00 996.0
20210125030125 0 0.0 0.0 0.00 0.06 0.00 995.7
20210125024617 0 0.0 0.0 0.00 0.06 0.00 995.7
20210125023110 0 0.0 0.0 0.00 0.06 0.00 995.5
20210125021624 0 0.0 0.0 0.00 0.06 0.00 995.3
20210125020133 32 279 0.0 0.0 0.00 0.06 0.00 93 995.2
20210125014641 33 279 0.0 0.0 0.00 0.06 0.00 93 995.1
20210125013040 33 279 0.0 0.0 0.00 0.06 0.00 93 995.0
20210125011606 33 278 0.0 5.0 0.00 0.06 0.00 93 995.0
20210125010053 33 277 3.0 6.0 0.00 0.06 0.00 93 994.8
20210125004533 33 277 2.0 5.0 0.00 0.06 0.00 93 994.7
20210125003049 33 277 0.0 5.0 0.00 0.06 0.00 93 994.7
20210125001559 33 277 1.0 5.0 0.00 0.06 0.00 93 994.8
20210125000046 33 280 1.0 6.0 0.00 0.06 0.00 93 994.8
20210124234547 33 284 2.0 6.0 0.00 0.06 0.00 93 994.8
20210124233051 33 287 2.0 6.0 0.00 0.06 0.00 93 994.8
20210124231549 33 263 2.0 5.0 0.00 0.06 0.00 93 994.7
20210124230028 33 298 1.0 6.0 0.00 0.06 0.00 93 994.7
20210124224620 33 283 2.0 8.0 0.00 0.06 0.06 93 994.7
20210124223025 33 270 2.0 6.0 0.00 0.06 0.06 93 994.7
20210124221526 33 278 3.0 7.0 0.00 0.06 0.06 93 994.8
20210124220102 33 266 2.0 6.0 0.00 0.06 0.06 93 994.8
20210124214526 33 265 2.0 7.0 0.00 0.06 0.06 93 994.7
20210124213021 33 262 2.0 5.0 0.00 0.06 0.06 93 994.7
20210124211505 33 267 0.0 4.0 0.00 0.06 0.06 93 994.6
20210124210317 33 269 0.0 0.0 0.00 0.06 0.06 93 994.4
20210124204739 33 269 0.0 0.0 0.00 0.06 0.06 93 994.2
20210124203217 33 269 0.0 0.0 0.00 0.06 0.06 93 994.4
20210124201648 33 269 0.0 0.0 0.00 0.06 0.06 93 994.3
20210124200214 33 269 1.0 5.0 0.00 0.06 0.06 93 994.4
20210124194744 33 258 1.0 5.0 0.00 0.06 0.06 92 994.6
20210124193112 33 250 0.0 0.0 0.00 0.06 0.06 92 994.5
20210124191630 33 309 0.0 0.0 0.00 0.06 0.06 92 994.5
20210124190335 33 325 0.0 0.0 0.00 0.06 0.06 92 994.3
20210124184629 33 325 0.0 0.0 0.00 0.06 0.06 92 994.4
20210124183141 33 325 0.0 0.0 0.00 0.06 0.06 92 994.4
20210124181644 33 63 0.0 0.0 0.00 0.06 0.06 92 994.4
20210124180308 33 63 0.0 0.0 0.00 0.06 0.06 92 994.3
20210124174617 33 63 0.0 0.0 0.00 0.06 0.06 92 994.5
20210124173117 33 63 0.0 0.0 0.00 0.06 0.06 92 994.6
20210124171619 33 63 0.0 0.0 0.00 0.06 0.06 92 994.6
20210124170058 33 63 0.0 0.0 0.00 0.06 0.06 92 994.8
20210124164719 33 63 0.0 0.0 0.00 0.06 0.06 92 995.0
20210124163115 33 63 0.0 0.0 0.01 0.06 0.06 92 994.7
20210124161619 33 63 0.0 0.0 0.01 0.06 0.06 92 994.8
20210124160112 33 63 0.0 0.0 0.01 0.06 0.06 92 994.8
20210124154555 33 63 0.0 0.0 0.01 0.06 0.06 92 994.8
20210124153110 33 63 0.0 0.0 0.00 0.05 0.05 92 994.8
20210124151716 33 63 0.0 0.0 0.00 0.05 0.05 92 994.8
20210124150223 33 63 0.0 0.0 0.01 0.05 0.05 92 994.8
20210124144640 33 63 0.0 0.0 0.02 0.05 0.05 92 995.0
20210124143202 34 63 0.0 0.0 0.02 0.05 0.05 92 994.9
20210124141615 34 63 0.0 0.0 0.03 0.05 0.05 92 994.8
20210124140106 35 63 0.0 0.0 0.03 0.04 0.04 92 994.9
20210124134642 35 63 0.0 0.0 0.03 0.03 0.03 92 995.0
20210124133144 35 63 0.0 0.0 0.02 0.02 0.02 92 995.2
20210124131758 36 64 0.0 0.0 0.02 0.02 0.02 92 995.2
20210124130353 36 64 0.0 0.0 0.01 0.01 0.01 92 995.2
20210124124635 36 64 0.0 0.0 0.00 0.00 0.00 92 995.2